Flag for Australia Weather past 2 weeks in Albany, Western Australia, Australia

Now
64 °F

Overcast.


Feels Like: 64 °F
Forecast: 56 / 64 °F
Wind: 10 mph from West

Location: Albany Airport

Current Time: Jul 3, 2015 at 2:32:11 PM

Latest Report: Jul 3, 2015 at 12:00 PM


Visibility: 19 mi

Pressure: 30.15 "Hg

Humidity: 84%

Dew point: 59 °F

Location of AlbanyLocation

Historic Weather in Albany — Graph

°F

Albany temperature yesterday

Maximum temperature yesterday: 64 °F (at 2:00 PM)
Minimum temperature yesterday: 53 °F (at 8:00 PM)
Average temperature yesterday: 57 °F

Past Weeks' High & Low Weather Summary

 TemperatureHumidityPressure
High69 °F (Jun 20, 2:00 PM)100% (Jun 20, 12:00 AM)30.54 "Hg (Jun 20, 12:00 AM)
Low37 °F (Jun 29, 6:00 AM)46% (Jun 26, 2:00 PM)29.50 "Hg (Jun 21, 2:00 PM)
Average53 °F84%30.18 "Hg
* Reported Jun 18 12:00 Noon — Jul 3 12:00 Noon, Albany, Weather by CustomWeather, © 2015

Note: Actual official high and low records may vary slightly from our data, if they occured in-between our weather recording intervals... More about our weather records

Advertising

Albany weather history for previous 24 hours

 ConditionsComfort  
Time TempWeatherWind HumidityBarometerVisibility
12:00 PM
Fri, Jul 3
64 °FOvercast.10 mph84%30.15 "Hg19 mi
11:00 AM61 °FCool.9 mph94%30.16 "HgN/A
9:00 AM58 °FSprinkles. Low clouds.10 mph92%30.16 "Hg19 mi
8:00 AM56 °FCool.7 mph94%30.15 "HgN/A
6:00 AM54 °FPassing clouds.9 mph92%30.13 "Hg19 mi
5:00 AM49 °FCool.5 mph96%30.11 "HgN/A
3:00 AM50 °FCool.8 mph92%30.13 "HgN/A
2:00 AM51 °FCool.7 mph88%30.12 "HgN/A
12:00 AM56 °FCool.9 mph77%30.14 "HgN/A
11:00 PM
Thu, Jul 2
58 °FCool.10 mph72%30.14 "HgN/A
9:00 PM56 °FPassing clouds.8 mph79%30.16 "HgN/A
8:00 PM53 °FCool.5 mph86%30.15 "HgN/A
6:00 PM54 °FPassing clouds.8 mph86%30.14 "HgN/A
5:00 PM59 °FCool.8 mph78%30.14 "HgN/A
3:00 PM63 °FSprinkles. Overcast.8 mph67%30.14 "Hg19 mi
2:00 PM64 °FMild.8 mph64%30.14 "HgN/A
Weather by CustomWeather, © 2015

See weather overviewHow to use our weather pages